Zurück zum Katalog

METEOR 3-2

AktivWetterPO
NORAD 19336·PAYLOAD·🇷🇺 Russia

Gestartet Jul 26, 1988 von Plesetsk Cosmodrome

Loading…

Nächste Überflüge (nächste 24 Stunden)

TLE

AktuellSource: Space-Track

Epoche: Sep 14, 2026, 12:04 UTC

1 19336U 88064A   26257.50331339  .00000067  00000-0  14085-3 0  9991
2 19336  82.5382 267.5408 0016813 348.5391 176.8526 13.17285230833412

Verfolge METEOR 3-2 in Echtzeit mit AllMySat

Download on the App Store